KF6RAL-6 Weather Reports


Display with metric or nautical units.
time (UTC)temp
F
wind
direction
speed
MPH
gust
MPH
rain 1hr
in
rain 24hr
in
rain mn
in
humidity
%
barometer
mb
20170427085948 0 219 11.0 18.0 0.19 0.45 0.25 1005.5
20170427085247 0 219 9.0 17.0 0.16 0.42 0.22 1005.6
20170427084546 0 221 10.0 22.0 0.14 0.40 0.20 1005.5
20170427083844 0 242 12.0 24.0 0.13 0.39 0.19 1005.5
20170427083144 0 256 15.0 29.0 0.13 0.39 0.19 1005.4
20170427082443 0 219 13.0 29.0 0.07 0.33 0.13 1005.3
20170427081742 0 237 17.0 27.0 0.02 0.28 0.08 1005.2
20170427081041 0 236 17.0 27.0 0.05 0.28 0.08 1005.3
20170427080339 0 235 20.0 26.0 0.05 0.28 0.08 1005.3
20170427075639 0 236 16.0 22.0 0.03 0.26 0.06 1005.2
20170427074937 0 239 13.0 16.0 0.06 0.26 0.06 1005.3
20170427074236 0 231 7.0 14.0 0.06 0.26 0.06 1005.3
20170427073535 0 215 6.0 15.0 0.06 0.26 0.06 1005.3
20170427072834 0 198 5.0 15.0 0.06 0.26 0.06 1005.5
20170427072134 0 191 5.0 22.0 0.06 0.26 0.06 1005.6
20170427071432 0 212 13.0 23.0 0.06 0.26 0.06 1005.6
20170427070731 0 224 17.0 25.0 0.03 0.23 0.03 1005.8
20170427070031 0 241 18.0 26.0 0.03 0.23 0.03 1005.6
20170427065330 0 221 11.0 20.0 0.00 0.20 0.00 1005.6
20170427064628 0 240 15.0 20.0 0.00 0.20 0.00 1005.6
20170427063927 0 241 16.0 21.0 0.00 0.20 0.00 1005.4
20170427063226 0 243 16.0 23.0 0.00 0.20 0.20 1005.3
20170427062525 0 219 12.0 18.0 0.00 0.20 0.20 1005.2
20170427061123 0 224 12.0 16.0 0.00 0.20 0.20 1005.0
20170427060423 0 0 0.0 0.0 0.00 0.20 0.20 1004.9
20170427055721 0 0 0.0 0.0 0.00 0.20 0.20 1004.8
20170427055020 0 0 0.0 0.0 0.00 0.20 0.20 1004.7
20170427054319 0 0 0.0 0.0 0.00 0.20 0.20 1004.6
20170427053618 0 0 0.0 0.0 0.00 0.20 0.20 1004.7
20170427052917 0 0 0.0 0.0 0.00 0.20 0.20 1004.7
20170427051515 0 0 0.0 0.0 0.00 0.20 0.20 1004.9
20170427050816 0 0 0.0 0.0 0.00 0.20 0.20 1004.8
20170427050115 0 0 0.0 0.0 0.00 0.20 0.20 1005.1
20170427045412 0 0 0.0 0.0 0.00 0.20 0.20 1005.0
20170427044754 0 0 0.0 0.0 0.00 0.20 0.20 1005.1
20170427044711 0 0 0.0 0.0 0.00 0.20 0.20 1005.1
20170427044010 0 0 0.0 0.0 0.00 0.20 0.20 1005.0
20170427043309 0 0 0.0 0.0 0.00 0.20 0.20 1005.3
20170427042608 0 0 0.0 0.0 0.00 0.20 0.20 1005.3
20170427041907 0 0 0.0 0.0 0.00 0.20 0.20 1005.3
20170427041206 0 0 0.0 0.0 0.00 0.20 0.20 1005.1
20170427040505 0 0 0.0 0.0 0.00 0.20 0.20 1005.1
20170427035804 0 0 0.0 0.0 0.00 0.20 0.20 1004.9
20170427035104 0 0 0.0 0.0 0.00 0.20 0.20 1004.8
20170427034402 0 0 0.0 0.0 0.00 0.20 0.20 1005.0
20170427033701 0 0 0.0 0.0 0.00 0.20 0.20 1005.3
20170427032259 0 0 0.0 0.0 0.00 0.20 0.20 1005.4
20170427031558 0 0 0.0 0.0 0.00 0.20 0.20 1005.0
20170427030857 0 0 0.0 0.0 0.00 0.20 0.20 1004.7
20170427030156 0 0 0.0 0.0 0.00 0.20 0.20 1004.6
20170427025456 0 0 0.0 0.0 0.00 0.20 0.20 1004.7
20170427024754 0 0 0.0 0.0 0.00 0.20 0.20 1004.9
20170427024053 0 0 0.0 0.0 0.00 0.20 0.20 1004.8
20170427023352 0 0 0.0 0.0 0.00 0.20 0.20 1005.1
20170427022652 0 0 0.0 0.0 0.00 0.20 0.20 1005.1
20170427021950 0 0 0.0 0.0 0.00 0.20 0.20 1005.0
20170427021249 0 0 0.0 0.0 0.00 0.20 0.20 1005.1
20170427020548 0 0 0.0 0.0 0.00 0.20 0.20 1005.1
20170427015847 0 0 0.0 0.0 0.00 0.20 0.20 1005.1
20170427015146 0 0 0.0 0.0 0.00 0.20 0.20 1005.3
20170427014445 0 0 0.0 0.0 0.00 0.20 0.20 1005.5
20170427013745 0 0 0.0 0.0 0.00 0.20 0.20 1005.6
20170427013043 0 0 0.0 0.0 0.00 0.20 0.20 1005.8
20170427012342 0 0 0.0 0.0 0.00 0.20 0.20 1005.9
20170427011641 0 0 0.0 0.0 0.00 0.20 0.20 1005.9
20170427010940 0 0 0.0 0.0 0.00 0.20 0.20 1005.9
20170427010239 0 0 0.0 0.0 0.00 0.20 0.20 1005.9
20170427005539 0 0 0.0 0.0 0.00 0.20 0.20 1006.0
20170427004837 0 0 0.0 7.0 0.00 0.20 0.20 1005.8
20170427003435 0 24 5.0 10.0 0.00 0.20 0.20 1005.8
20170427002735 0 0 0.0 10.0 0.00 0.20 0.20 1005.6
20170427002033 0 38 3.0 10.0 0.00 0.20 0.20 1005.8
20170427001333 0 62 1.0 5.0 0.00 0.20 0.20 1005.9
20170427000631 0 63 2.0 6.0 0.00 0.20 0.20 1005.8
20170426235930 0 66 3.0 6.0 0.00 0.20 0.20 1005.5
20170426235229 0 0 0.0 6.0 0.00 0.20 0.20 1005.5
20170426234529 0 0 0.0 0.0 0.00 0.20 0.20 1005.5
20170426233126 0 0 0.0 0.0 0.00 0.20 0.20 1005.6
20170426232425 0 0 0.0 0.0 0.00 0.20 0.20 1005.8
20170426231724 0 0 0.0 0.0 0.00 0.20 0.20 1005.9
20170426231023 0 0 0.0 0.0 0.00 0.20 0.20 1005.9
20170426230322 0 0 0.0 3.0 0.00 0.20 0.20 1005.9
20170426225621 0 0 0.0 16.0 0.00 0.20 0.20 1006.0
20170426224920 0 213 9.0 22.0 0.00 0.20 0.20 1006.0
20170426224219 0 251 9.0 22.0 0.00 0.20 0.20 1005.9
20170426223519 0 279 9.0 14.0 0.00 0.20 0.20 1005.8
20170426222818 0 0 0.0 11.0 0.00 0.20 0.20 1005.8
20170426222116 0 71 6.0 11.0 0.00 0.20 0.20 1005.7
20170426221415 0 305 3.0 10.0 0.00 0.20 0.20 1005.6
20170426220714 0 335 5.0 10.0 0.00 0.20 0.20 1005.6
20170426220013 0 0 0.0 0.0 0.00 0.20 0.20 1005.8
20170426215312 0 0 0.0 0.0 0.00 0.20 0.20 1005.9
20170426214611 0 0 0.0 7.0 0.00 0.20 0.20 1006.0
20170426213910 0 24 4.0 7.0 0.00 0.20 0.20 1006.0
20170426213209 0 14 4.0 10.0 0.00 0.20 0.20 1006.1
20170426212508 0 21 5.0 9.0 0.00 0.20 0.20 1006.4
20170426211807 0 15 4.0 9.0 0.00 0.20 0.20 1006.6
20170426211106 0 12 3.0 9.0 0.00 0.20 0.20 1006.6
20170426210405 0 0 0.0 1.0 0.00 0.20 0.20 1006.8
20170426205704 0 0 0.0 5.0 0.00 0.20 0.20 1007.0
20170426205003 0 0 0.0 6.0 0.00 0.20 0.20 1007.1
20170426204302 0 0 0.0 6.0 0.00 0.20 0.20 1007.1
20170426203601 0 352 2.0 7.0 0.00 0.20 0.20 1007.2
20170426202900 0 1 4.0 9.0 0.00 0.20 0.20 1007.4
20170426202159 0 0 0.0 0.0 0.00 0.20 0.20 1007.3
20170426201458 0 0 0.0 1.0 0.00 0.20 0.20 1007.4
20170426200056 0 279 5.0 14.0 0.00 0.20 0.20 1007.7
20170426195355 0 282 7.0 12.0 0.00 0.20 0.20 1007.7
20170426194654 0 276 8.0 13.0 0.00 0.20 0.20 1007.8
20170426193254 0 271 9.0 13.0 0.00 0.20 0.20 1007.9
20170426192551 0 224 4.0 12.0 0.00 0.20 0.20 1008.1
20170426191851 0 246 4.0 11.0 0.00 0.20 0.20 1008.2
20170426185747 0 242 5.0 16.0 0.02 0.20 0.20 1008.8
20170426185046 0 230 7.0 17.0 0.02 0.20 0.20 1008.9
20170426184345 0 228 13.0 17.0 0.02 0.20 0.20 1009.0
20170426183644 0 220 3.0 15.0 0.05 0.20 0.20 1009.1
20170426182943 0 233 2.0 18.0 0.06 0.20 0.20 1009.4
20170426182244 0 219 7.0 18.0 0.06 0.20 0.20 1009.4
20170426181541 0 0 0.0 19.0 0.06 0.20 0.20 1009.4
20170426180840 0 0 0.0 16.0 0.15 0.21 0.20 1009.6
20170426180139 0 244 11.0 17.0 0.17 0.23 0.18 1009.7
20170426175437 0 223 6.0 18.0 0.17 0.23 0.18 1009.7
20170426174737 0 245 11.0 15.0 0.18 0.23 0.18 1009.8
20170426174035 0 206 5.0 17.0 0.15 0.21 0.15 1009.8
20170426173335 0 203 8.0 18.0 0.15 0.21 0.15 1010.0
20170426172634 0 211 3.0 18.0 0.14 0.20 0.14 1010.1
20170426171933 0 212 9.0 21.0 0.14 0.20 0.14 1010.2
20170426171232 0 196 12.0 21.0 0.14 0.20 0.14 1010.2
20170426170531 0 198 8.0 18.0 0.01 0.07 0.01 1010.1
20170426165829 0 210 11.0 18.0 0.01 0.07 0.01 1010.3
20170426165129 0 214 11.0 15.0 0.01 0.07 0.01 1010.5
20170426164427 0 221 8.0 15.0 0.00 0.06 0.00 1010.6
20170426163726 0 226 11.0 15.0 0.00 0.06 0.00 1010.7
20170426163026 0 242 10.0 14.0 0.00 0.06 0.00 1010.8
20170426162325 0 215 10.0 14.0 0.00 0.06 0.00 1010.6
20170426161623 0 229 3.0 15.0 0.00 0.06 0.00 1010.9
20170426160922 0 234 11.0 15.0 0.00 0.06 0.00 1010.8
20170426160221 0 0 0.0 0.0 0.00 0.09 0.00 1010.7
20170426155520 0 0 0.0 0.0 0.00 0.09 0.00 1010.6
20170426154819 0 0 0.0 0.0 0.00 0.09 0.00 1010.7
20170426154118 0 0 0.0 0.0 0.00 0.09 0.00 1010.6
20170426152716 0 0 0.0 0.0 0.00 0.09 0.00 1010.3
20170426152015 0 0 0.0 0.0 0.00 0.09 0.00 1010.5
20170426151315 0 0 0.0 0.0 0.00 0.09 0.00 1010.5
20170426150613 0 0 0.0 0.0 0.00 0.24 0.00 1010.6
20170426145912 0 0 0.0 0.0 0.00 0.24 0.00 1010.6
20170426145211 0 0 0.0 0.0 0.00 0.24 0.00 1010.8
20170426144510 0 0 0.0 0.0 0.00 0.26 0.00 1010.9
20170426143810 0 0 0.0 0.0 0.00 0.32 0.00 1010.7
20170426143108 0 0 0.0 0.0 0.00 0.32 0.00 1011.0
20170426142407 0 0 0.0 0.0 0.00 0.33 0.00 1011.1
20170426141706 0 0 0.0 0.0 0.00 0.33 0.00 1010.8
20170426141006 0 0 0.0 0.0 0.00 0.33 0.00 1010.9
20170426140304 0 0 0.0 0.0 0.00 0.33 0.00 1010.8
20170426135603 0 0 0.0 0.0 0.00 0.33 0.00 1010.8
20170426134902 0 0 0.0 0.0 0.00 0.33 0.00 1010.4
20170426134201 0 0 0.0 0.0 0.00 0.34 0.00 1010.5
20170426133500 0 0 0.0 0.0 0.00 0.35 0.00 1010.5
20170426132759 0 0 0.0 0.0 0.00 0.35 0.00 1010.4
20170426132058 0 0 0.0 0.0 0.00 0.35 0.00 1010.5
20170426131357 0 0 0.0 0.0 0.00 0.35 0.00 1010.6
20170426130656 0 0 0.0 0.0 0.00 0.37 0.00 1010.7
20170426125955 0 0 0.0 0.0 0.00 0.39 0.00 1010.8
20170426125254 0 0 0.0 0.0 0.00 0.39 0.00 1010.7
20170426124554 0 0 0.0 0.0 0.00 0.39 0.00 1010.5
20170426123852 0 0 0.0 0.0 0.00 0.39 0.00 1010.5
20170426123151 0 0 0.0 0.0 0.00 0.39 0.00 1010.3
20170426122451 0 0 0.0 0.0 0.00 0.39 0.00 1010.3
20170426121749 0 0 0.0 0.0 0.00 0.39 0.00 1010.1
20170426121048 0 0 0.0 0.0 0.00 0.39 0.00 1009.8
20170426120347 0 0 0.0 0.0 0.00 0.41 0.00 1009.8
20170426115646 0 0 0.0 0.0 0.00 0.42 0.00 1009.7
20170426114945 0 0 0.0 0.0 0.00 0.42 0.00 1009.8
20170426114244 0 0 0.0 0.0 0.00 0.42 0.00 1009.8
20170426113543 0 0 0.0 0.0 0.00 0.42 0.00 1009.9
20170426112842 0 0 0.0 0.0 0.00 0.42 0.00 1010.1
20170426112141 0 0 0.0 13.0 0.00 0.42 0.00 1010.1
20170426111440 0 207 3.0 13.0 0.00 0.42 0.00 1010.1
20170426110739 0 220 5.0 10.0 0.00 0.42 0.00 1010.2
20170426110038 0 234 4.0 10.0 0.00 0.42 0.00 1010.2
20170426105336 0 0 0.0 9.0 0.00 0.42 0.00 1010.3
20170426104636 0 206 1.0 9.0 0.00 0.42 0.00 1010.3
20170426103936 0 0 0.0 12.0 0.00 0.42 0.00 1010.3
20170426103233 0 201 6.0 14.0 0.00 0.42 0.00 1010.2
20170426102533 0 0 0.0 7.0 0.00 0.44 0.00 1010.3
20170426101831 0 261 3.0 10.0 0.00 0.46 0.00 1010.4
20170426101130 0 201 6.0 12.0 0.00 0.46 0.00 1010.3
20170426100429 0 204 6.0 11.0 0.00 0.46 0.00 1010.4
20170426095728 0 202 1.0 14.0 0.00 0.46 0.00 1010.4
20170426095027 0 213 6.0 14.0 0.00 0.46 0.00 1010.4
20170426094326 0 0 0.0 0.0 0.00 0.46 0.00 1010.4
20170426093625 0 0 0.0 13.0 0.00 0.46 0.00 1010.4
20170426092925 0 0 0.0 11.0 0.00 0.46 0.00 1010.5
20170426092300 0 0 0.0 7.0 0.00 0.46 0.00 1010.5
20170426092223 0 0 0.0 7.0 0.00 0.46 0.00 1010.5
20170426091522 0 199 5.0 11.0 0.00 0.46 0.00 1010.5
20170426090821 0 204 4.0 10.0 0.00 0.46 0.00 1010.5
20170426090121 0 235 4.0 12.0 0.00 0.46 0.00 1010.7